Weather in Ovoshchi

Russia / Stavropol Krai     45°22′04″N   43°19′40″E
temp.,
°C
wind,
m/s
gust,
m/s
humid.,
%
clouds,
%
prec.,
mm/h
press.,
hPa
HPBL,
m
4 july, mon
mon400:00+19wnw354372 0.0 1015108
03:00+17wnw33505 0.0 101533
06:00+18wnw365620 0.0 1016161
09:00+24wnw45385 0.0 10151042
12:00+27nw44317 0.0 10152502
15:00+28wnw45277 0.0 10132892
18:00+28wnw453232 0.0 10132404
21:00+23w354348 0.0 1014110
5 july, tue
tue500:00+22wsw484511 0.0 1013143
03:00+20w494993 0.0 1014180
06:00+20w4105322 0.0 1014326
09:00+25nnw56450 0.0 1015866
12:00+28n55342 0.0 10142355
15:00+29n55270 0.0 10142455
18:00+27n54270 0.0 10142222
21:00+21ne33330 0.0 101527
6 july, wed
wed600:00+19e33370 0.0 101624
03:00+17ese33420 0.0 101633
06:00+18ese37470 0.0 1016179
09:00+25e55310 0.0 10161320
12:00+27e66280 0.0 10162025
15:00+29e66250 0.0 10142203
18:00+27e66270 0.0 10141949
21:00+20e511350 0.0 1015187
7 july, thu
thu700:00+18se512410 0.0 1015281
03:00+16ese513540 0.0 1015293
06:00+17ese613670 0.0 1016509
09:00+23ese912430 0.0 10151164
12:00+27ese911320 0.0 10141715
15:00+29ese910260 0.0 10131981
18:00+26ese810300 0.0 10131631
21:00+21ese714380 0.0 1014485
8 july, fri
fri800:00+18ese714550 0.0 1014453
03:00+16ese513740 0.0 1013395
06:00+18ese512750 0.0 1014495
09:00+25ese812430 0.0 10131342
12:00+30ese911292 0.0 10122233
15:00+32ese810240 0.0 10102679
18:00+29e910275 0.0 10111759
21:00+24ese71432100 0.0 1012486